2023/01/29 00:00:00,176.0,-6.4
2023/01/29 00:10:00,175.8,-6.3
2023/01/29 00:20:00,175.5,-6.1
2023/01/29 00:30:00,175.5,-6.5
2023/01/29 00:40:00,175.5,-6.3
2023/01/29 00:50:00,175.4,-6.1
2023/01/29 01:00:00,175.4,-6.3
2023/01/29 01:10:00,175.2,-6.2
2023/01/29 01:20:00,175.2,-6.3
2023/01/29 01:30:00,175.0,-6.0
2023/01/29 01:40:00,175.2,-6.0
2023/01/29 01:50:00,175.3,-5.8
2023/01/29 02:00:00,175.2,-6.7
2023/01/29 02:10:00,175.0,-5.7
2023/01/29 02:20:00,174.8,-5.6
2023/01/29 02:30:00,174.6,-5.7
2023/01/29 02:40:00,174.4,-6.3
2023/01/29 02:50:00,174.3,-6.3
2023/01/29 03:00:00,174.3,-6.2
2023/01/29 03:10:00,173.9,-6.4
2023/01/29 03:20:00,173.6,-6.2
2023/01/29 03:30:00,173.6,-6.3
2023/01/29 03:40:00,173.6,-6.5
2023/01/29 03:50:00,173.6,-6.7
2023/01/29 04:00:00,173.4,-6.2
2023/01/29 04:10:00,173.3,-6.3
2023/01/29 04:20:00,173.3,-6.4
2023/01/29 04:30:00,173.0,-6.6
2023/01/29 04:40:00,172.8,-6.3
2023/01/29 04:50:00,172.8,-6.0
2023/01/29 05:00:00,172.7,-6.0
2023/01/29 05:10:00,172.6,-6.0
2023/01/29 05:20:00,172.5,-6.0
2023/01/29 05:30:00,172.4,-6.1
2023/01/29 05:40:00,172.2,-5.8
2023/01/29 05:50:00,172.1,-5.9
2023/01/29 06:00:00,172.0,-6.0
2023/01/29 06:10:00,171.9,-6.2
2023/01/29 06:20:00,171.8,-6.3
2023/01/29 06:30:00,171.7,-6.4
2023/01/29 06:40:00,171.5,-6.5
2023/01/29 06:50:00,171.5,-6.4
2023/01/29 07:00:00,171.2,-6.3
2023/01/29 07:10:00,170.9,-6.1
2023/01/29 07:20:00,170.8,-6.5
2023/01/29 07:30:00,170.7,-6.2
2023/01/29 07:40:00,170.5,-6.4
2023/01/29 07:50:00,170.2,-6.5
2023/01/29 08:00:00,169.9,-5.7
2023/01/29 08:10:00,169.8,-5.3
2023/01/29 08:20:00,169.7,-5.2
2023/01/29 08:30:00,169.7,-4.5
2023/01/29 08:40:00,169.6,-3.9
2023/01/29 08:50:00,169.2,-2.4
2023/01/29 09:00:00,169.0,-2.1
2023/01/29 09:10:00,168.9,-0.7
2023/01/29 09:20:00,168.7,-1.2
2023/01/29 09:30:00,168.6,-0.6
2023/01/29 09:40:00,168.5,-1.1
2023/01/29 09:50:00,168.3,-0.7
2023/01/29 10:00:00,168.0, 0.4
2023/01/29 10:10:00,168.1,-0.3
2023/01/29 10:20:00,168.0, 0.4
2023/01/29 10:30:00,168.0, 1.2
2023/01/29 10:40:00,168.0, 1.0
2023/01/29 10:50:00,167.9, 0.6
2023/01/29 11:00:00,167.8, 0.3
2023/01/29 11:10:00,167.8,-0.1
2023/01/29 11:20:00,167.6, 0.2
2023/01/29 11:30:00,167.5, 0.7
2023/01/29 11:40:00,167.4, 0.9
2023/01/29 11:50:00,167.2, 1.2
2023/01/29 12:00:00,166.9, 1.4
2023/01/29 12:10:00,167.1, 0.7
2023/01/29 12:20:00,167.0, 1.3
2023/01/29 12:30:00,167.0, 1.2
2023/01/29 12:40:00,166.9, 0.8
2023/01/29 12:50:00,166.9, 0.7
2023/01/29 13:00:00,166.7, 1.0
2023/01/29 13:10:00,166.6,-0.1
2023/01/29 13:20:00,166.4, 0.1
2023/01/29 13:30:00,166.2,-1.3
2023/01/29 13:40:00,166.0,-0.4
2023/01/29 13:50:00,165.9,-0.3
2023/01/29 14:00:00,165.9,-0.3
2023/01/29 14:10:00,165.5,-0.3
2023/01/29 14:20:00,165.5,-0.7
2023/01/29 14:30:00,165.3, 0.0
2023/01/29 14:40:00,165.0, 0.0
2023/01/29 14:50:00,165.0,-0.6
2023/01/29 15:00:00,165.0,-1.2
2023/01/29 15:10:00,164.9,-1.3
2023/01/29 15:20:00,164.8,-1.4
2023/01/29 15:30:00,164.8,-1.2
2023/01/29 15:40:00,164.5,-1.4
2023/01/29 15:50:00,164.2,-1.3
2023/01/29 16:00:00,164.1,-1.3
2023/01/29 16:10:00,164.0,-1.9
2023/01/29 16:20:00,164.0,-1.9
2023/01/29 16:30:00,163.9,-2.1
2023/01/29 16:40:00,163.7,-1.9
2023/01/29 16:50:00,163.7,-2.7
2023/01/29 17:00:00,163.5,-2.8
2023/01/29 17:10:00,163.3,-2.7
2023/01/29 17:20:00,163.3,-3.4
2023/01/29 17:30:00,163.3,-4.0
2023/01/29 17:40:00,163.2,-4.1
2023/01/29 17:50:00,163.2,-4.3
2023/01/29 18:00:00,163.0,-4.8
2023/01/29 18:10:00,163.0,-4.7
2023/01/29 18:20:00,163.0,-4.8
2023/01/29 18:30:00,162.9,-4.6
2023/01/29 18:40:00,162.9,-4.5
2023/01/29 18:50:00,163.0,-4.2
2023/01/29 19:00:00,163.1,-4.1
2023/01/29 19:10:00,163.1,-4.1
2023/01/29 19:20:00,162.8,-4.2
2023/01/29 19:30:00,162.5,-4.2
2023/01/29 19:40:00,162.3,-4.2
2023/01/29 19:50:00,162.1,-4.3
2023/01/29 20:00:00,162.1,-4.1
2023/01/29 20:10:00,162.0,-4.2
2023/01/29 20:20:00,162.0,-4.4
2023/01/29 20:30:00,162.0,-4.6
2023/01/29 20:40:00,161.8,-5.0
2023/01/29 20:50:00,161.6,-5.0
2023/01/29 21:00:00,161.7,-5.2
2023/01/29 21:10:00,161.7,-4.9
2023/01/29 21:20:00,161.6,-5.4
2023/01/29 21:30:00,161.5,-5.5
2023/01/29 21:40:00,161.3,-5.4
2023/01/29 21:50:00,161.2,-5.4
2023/01/29 22:00:00,161.1,-4.9
2023/01/29 22:10:00,161.1,-4.8
2023/01/29 22:20:00,161.0,-4.7
2023/01/29 22:30:00,160.8,-4.8
2023/01/29 22:40:00,160.7,-4.6
2023/01/29 22:50:00,160.5,-4.8
2023/01/29 23:00:00,160.4,-4.8
2023/01/29 23:10:00,160.2,-4.8
2023/01/29 23:20:00,160.1,-4.9
2023/01/29 23:30:00,160.2,-5.2
2023/01/29 23:40:00,160.1,-5.1
2023/01/29 23:50:00,160.1,-5.2
